Location: Newark
(28.4500°N, 16.2500°W)
Time: 16:53:23
(UTC+00:00)

NOAA 15 - Visible Passes

Search period start: 16 October 2019 00:00
Search period end: 26 October 2019 00:00
Orbit: 798 x 812 km, 98.7° (Epoch: 16 October)

Date Brightness Start Highest point End Pass type
(mag) Time Alt. Az. Time Alt. Az. Time Alt. Az.
16 Oct 4.8 19:54:02 10° S 19:59:18 71° WSW 20:04:36 10° NNW visible
17 Oct 4.6 19:29:04 10° SSE 19:34:16 63° ENE 19:39:32 10° N visible
17 Oct 7.7 21:13:05 10° WSW 21:14:19 11° W 21:15:33 10° W visible
18 Oct 5.2 19:04:36 10° SE 19:09:20 34° ENE 19:14:06 10° N visible
18 Oct 7.0 20:45:08 10° SW 20:49:03 21° W 20:53:01 10° NW visible
19 Oct 6.0 20:19:00 10° SSW 20:23:53 39° W 20:28:50 10° NNW visible
20 Oct 4.8 19:53:31 10° S 19:58:48 72° WSW 20:04:06 10° NNW visible
21 Oct 4.6 19:28:34 10° SSE 19:33:46 62° ENE 19:39:01 10° N visible
21 Oct 7.7 21:12:23 10° WSW 21:13:48 11° W 21:15:13 10° WNW visible
22 Oct 5.2 19:04:07 10° SE 19:08:50 34° ENE 19:13:34 10° N visible
22 Oct 6.9 20:44:35 10° SW 20:48:33 21° W 20:52:33 10° NW visible
23 Oct 5.9 20:18:28 10° SSW 20:23:23 39° W 20:28:20 10° NNW visible
24 Oct 4.8 19:53:00 10° S 19:58:17 74° WSW 20:03:37 10° NNW visible
25 Oct 4.6 19:28:03 10° SSE 19:33:16 61° ENE 19:38:31 10° N visible
25 Oct 7.7 21:11:43 10° WSW 21:13:17 11° W 21:14:52 10° WNW visible
